Oregon State Current Weather Observations

 
 ASUS46 KPQR 071210
 RWROR 
 
 OREGON REGIONAL WEATHER ROUNDUP
 NATIONAL WEATHER SERVICE PORTLAND OR
 500 AM PDT TUE JUL 07 2020
 
 NOTE: "FAIR" INDICATES FEW OR NO CLOUDS BELOW 12,000 FEET WITH
 NO SIGNIFICANT WEATHER AND/OR OBSTRUCTIONS TO VISIBILITY.
 
 ORZ001>013-071300-
 NORTHWEST OREGON
 
   
 CITY           SKY/WX    TMP DP  RH WIND       PRES   REMARKS
 ASTORIA        LGT RAIN  56  54  93 S3        30.06F FOG              
 6HR MIN TEMP:  56; 6HR MAX TEMP:  57; 6HR PCP:  0.01;                
 
 TILLAMOOK      RAIN      54  54 100 SE3       30.11S                  
 NEWPORT        CLOUDY    54  50  87 S5        30.14S                  
 FLORENCE       CLOUDY    57  52  84 CALM      30.13S                  
 PORTLAND       CLOUDY    59  50  72 VRB5      30.09S                  
 6HR MIN TEMP:  59; 6HR MAX TEMP:  61;                                
 
 VANCOUVER WA   CLOUDY    59  49  69 CALM      30.09R                  
 6HR MIN TEMP:  58; 6HR MAX TEMP:  62;                                
 
 SCAPPOOSE      CLOUDY    56  51  84 CALM      30.08S                  
 6HR MIN TEMP:  54; 6HR MAX TEMP:  59;                                
 
 HILLSBORO      CLOUDY    56  51  84 CALM      30.09R                  
 6HR MIN TEMP:  56; 6HR MAX TEMP:  59;                                
 
 AURORA         CLOUDY    57  49  74 SW5       30.11R                  
 6HR MIN TEMP:  57; 6HR MAX TEMP:  60;                                
 
 MCMINNVILLE    CLOUDY    55  51  86 SW6       30.10R                  
 6HR MIN TEMP:  54; 6HR MAX TEMP:  58;                                
 
 SALEM          CLOUDY    57  49  74 S5        30.10S                  
 6HR MIN TEMP:  56; 6HR MAX TEMP:  59;                                
 
 CORVALLIS      CLOUDY    56  51  84 CALM      30.13R                  
 EUGENE         CLOUDY    56  49  77 S6        30.13S                  
 6HR MIN TEMP:  56; 6HR MAX TEMP:  59;                                
 
 CRESWELL       CLOUDY    57  50  77 SW7       30.15R                  
 
ORZ021-028-071300- SOUTHWEST OREGON CITY SKY/WX TMP DP RH WIND PRES REMARKS NORTH BEND CLOUDY 57 53 86 SE7 30.15S 6HR MIN TEMP: 57; 6HR MAX TEMP: 59; BROOKINGS CLEAR 51 48 89 CALM 30.12S ROSEBURG CLOUDY 57 49 74 SE5 30.14S 6HR MIN TEMP: 57; 6HR MAX TEMP: 59; SEXTON SUMMIT FOG 43 43 100 N6 30.12S VSB 1/4 6HR MIN TEMP: 43; 6HR MAX TEMP: 45; 6HR PCP: TRACE; GRANTS PASS FAIR 50 45 81 CALM 30.16R MEDFORD MOCLDY 54 46 74 N5 30.11R 6HR MIN TEMP: 54; 6HR MAX TEMP: 61;
ORZ014>016-041-071300- COLUMBIA GORGE CITY SKY/WX TMP DP RH WIND PRES REMARKS TROUTDALE CLOUDY 58 50 75 S6 30.09S 6HR MIN TEMP: 58; 6HR MAX TEMP: 63; 6HR PCP: TRACE; HOOD RIVER CLOUDY 55 46 71 W7G20 30.04R THE DALLES CLEAR 59 47 64 W20G30 29.99R 6HR MIN TEMP: 59; 6HR MAX TEMP: 64;
ORZ029>031-041-044-049-050-061>064-502-503-505>511-071300- EASTERN OREGON CITY SKY/WX TMP DP RH WIND PRES REMARKS MADRAS CLEAR 45 39 81 SE7 30.06S REDMOND CLEAR 45 37 73 CALM 30.05R 6HR MIN TEMP: 45; 6HR MAX TEMP: 56; BEND CLEAR 41 37 87 CALM 30.07S PRINEVILLE CLEAR 46 37 71 CALM 30.05S KLAMATH FALLS CLEAR 38 35 89 CALM 30.10R 6HR MIN TEMP: 37; 6HR MAX TEMP: 52; LAKEVIEW CLEAR 37 31 78 SE8 30.08R HERMISTON CLEAR 59 46 62 SW17G24 29.92R 6HR MIN TEMP: 59; 6HR MAX TEMP: 66; 6HR PCP: 0.01; PENDLETON CLEAR 57 43 59 SW13 29.97R 6HR MIN TEMP: 57; 6HR MAX TEMP: 64; 6HR PCP: TRACE; JOHN DAY CLEAR 49 42 75 W8 30.03R MEACHAM CLOUDY 49 42 77 CALM 30.01S 6HR MIN TEMP: 46; 6HR MAX TEMP: 60; 6HR PCP: 0.04; LA GRANDE PTCLDY 52 43 71 NW16 29.99R 6HR MIN TEMP: 49; 6HR MAX TEMP: 67; 6HR PCP: 0.04; BAKER CITY PTCLDY 54 40 59 N18 29.94R 6HR MIN TEMP: 53; 6HR MAX TEMP: 70; 6HR PCP: TRACE; BURNS CLEAR 50 38 63 W8 30.01R 6HR MIN TEMP: 50; 6HR MAX TEMP: 70; ROME N/A 62 39 42 SW14 29.95R 6HR MIN TEMP: 61; 6HR MAX TEMP: 74; ONTARIO PTCLDY 67 37 33 W14 29.84R 6HR MIN TEMP: 66; 6HR MAX TEMP: 78;

Data from: http://www.wrh.noaa.gov/sew/get.php?pil=RWR&sid=OR&version=0&format=printer

Current Observations

Current Weather Conditions by Major Highway
Washington State Current Weather Observations   …  Oregon State Current Weather Observation



48 Hour Forecast


Seattle  …  Vancouver  …  Portland
————————————————————————————————————————
Bend  …  Spokane  …  Richland  …  Pendleton  …  Blue Mountains I-84  …  Yakima
————————————————————————————————————————
Goldendale, Washington Higher Elevations  …  Dallesport Airport - Goldendale  …  Bingen - White Salmon - Hood River  …  Index





Top of Page